[Iaude] MPEC F48: 2024 FK1 [a=0.93,e=0.16,i=11.0,H=26.3]
    mpec at cfa.harvard.edu 
    mpec at cfa.harvard.edu
       
    Wed Mar 20 06:55:54 EDT 2024
    
    
  
M.P.E.C. 2024-F48                                Issued 2024 March 20, 10:51 UT
     The Minor Planet Electronic Circulars contain information on unusual
         minor planets, routine data on comets and natural satellites,
         and occasional editorial announcements.  They are published
    on behalf of Division F of the International Astronomical Union by the
          Minor Planet Center, Smithsonian Astrophysical Observatory,
                          Cambridge, MA 02138, U.S.A.
			  
             Prepared using the Tamkin Foundation Computer Network
                              MPC at CFA.HARVARD.EDU
            URL https://www.minorplanetcenter.net/    ISSN 1523-6714
                                    2024 FK1                                    
Observations:
     K24F01K  C2024 03 18.96591612 57 51.607-32 17 03.05         19.13cVEF048M22
     K24F01K  C2024 03 18.97046612 57 53.875-32 15 45.72         19.11cVEF048M22
     K24F01K  C2024 03 18.97595312 57 56.714-32 14 09.06         19.46cVEF048M22
     K24F01K* C2024 03 19.01315112 58 15.238-32 03 04.97         19.13cVEF048M22
     K24F01K  C2024 03 19.01635112 58 16.889-32 02 06.50         19.21cVEF048M22
     K24F01K  C2024 03 19.02410812 58 20.801-31 59 44.23         19.00cVEF048M22
     K24F01K  C2024 03 19.03426812 58 25.956-31 56 37.72         19.03cVEF048M22
     K24F01K  C2024 03 19.13350313 00 10.18 -31 25 19.1                WEF048X09
     K24F01K  C2024 03 19.13911513 00 13.46 -31 23 36.3                WEF048X09
     K24F01K KC2024 03 19.54321 13 05 34.74 -29 00 53.0          18.5 VqEF048E23
     K24F01K KC2024 03 19.55710 13 05 44.02 -28 55 37.6                qEF048E23
     K24F01K KC2024 03 19.57099 13 05 53.40 -28 50 16.5          18.6 VqEF048E23
     K24F01K KC2024 03 19.97952913 12 12.71 -26 01 05.5          17.7 GVEF048L01
     K24F01K KC2024 03 19.98101013 12 13.94 -26 00 22.2          17.8 GVEF048L01
     K24F01K KC2024 03 19.98249113 12 15.18 -25 59 39.5          18.0 GVEF048L01
     K24F01K KC2024 03 19.98397013 12 16.36 -25 58 56.3          17.9 GVEF048L01
     K24F01K KC2024 03 19.98545013 12 17.59 -25 58 12.6          18.0 GVEF048L01
     K24F01K KB2024 03 20.18040 13 16 04.67 -24 14 23.6          19.0 GXEF048W42
     K24F01K KB2024 03 20.18377 13 16 07.67 -24 12 34.8          17.6 GXEF048W42
     K24F01K KB2024 03 20.18749 13 16 11.08 -24 10 34.3          18.0 GXEF048W42
     K24F01K  C2024 03 20.29439613 17 37.723-22 59 37.25         17.71oVEF048W68
     K24F01K  C2024 03 20.29803913 17 40.980-22 57 26.64         17.86oVEF048W68
     K24F01K  C2024 03 20.30556713 17 47.827-22 52 53.36         17.85oVEF048W68
     K24F01K  C2024 03 20.31676813 17 58.003-22 46 05.92         17.74oVEF048W68
Observer details:
E23 Arcadia.  Observer A. Hidas.  0.35-m f/1.9 reflector + CCD.
L01 Visnjan Observatory, Tican.  Observer K. Korlevic.  1.0-m f/2.9 reflector
    + CCD.
M22 ATLAS South Africa, Sutherland.  Observers L. Denneau, R. Siverd, J.
    Tonry, H. Weiland.  Measurers L. Denneau, N. Erasmus, A. Fitzsimmons, J.
    Robinson, R. Siverd, J. Tonry, H. Weiland.  0.5-m Reflector + CCD.
W42 Mind's Eye Observatory, Vero Beach.  Observer J. T. Grage.  0.30-m f/3.3
    SCT + CMO.
W68 ATLAS Chile, Rio Hurtado.  Observers L. Denneau, R. Siverd, J. Tonry, H.
    Weiland.  Measurers L. Denneau, N. Erasmus, A. Fitzsimmons, J. Robinson,
    R. Siverd, J. Tonry, H. Weiland.  0.5-m Reflector + CCD.
X09 Deep Random Survey, Rio Hurtado.  Observers A. Schnabel, D. Ruhela.
    Measurer S. Deen.  0.43-m reflector + CMOS.
Orbital elements:
2024 FK1                                                 Earth MOID = 0.0065 AU
Epoch 2024 Mar. 31.0 TT = JDT 2460400.5                 Veres                   
M 260.86955              (2000.0)            P               Q                  
n   1.09275711     Peri.  125.99441     +0.60099717     +0.79924467             
a   0.9335128      Node   180.96494     -0.78094551     +0.58637072             
e   0.1622553      Incl.   11.01588     -0.17007796     +0.13182310             
P   0.90           H   26.31          G   0.15           U   6                  
Residuals in seconds of arc
240318 M22  0.6-  1.1+    240319 X09  0.6+  0.5+    240319 L01  0.2-  0.2+
240318 M22  0.5-  0.8-    240319 E23  0.0   0.8+    240320 W42  0.2-  0.5-
240318 M22  0.9+  0.1-    240319 E23  0.5-  0.1-    240320 W42  0.4-  0.2-
240319 M22  0.1+  0.1-    240319 E23  1.3+  0.7+    240320 W42  0.8+  0.3+
240319 M22  0.5+  0.1+    240319 L01  0.4-  0.1+    240320 W68  0.4+  0.8+
240319 M22  0.2+  0.4+    240319 L01  0.2-  0.2+    240320 W68  0.2+  0.3+
240319 M22  0.2-  0.6-    240319 L01  0.1+  0.3-    240320 W68  0.8+  1.4+
240319 X09  0.3+  0.5-    240319 L01  0.4-  0.2-    240320 W68  0.1+  0.7+
Ephemeris:
2024 FK1                 a,e,i = 0.93, 0.16, 11                  q = 0.7820
Date    TT    R. A. (2000) Decl.     Delta      r    Elong.  Phase     V
2024 02 19    11 55 04.0 -45 37 11   0.1427  1.0623   117.7    55.5    24.2
...
2024 03 05    12 09 01.7 -46 29 21   0.07741 1.0386   125.4    51.1    22.7
...
2024 03 13    12 23 20.4 -43 55 12   0.04274 1.0229   131.8    46.4    21.3
...
2024 03 19    12 58 09.8 -32 07 17   0.01755 1.0098   144.0    35.4    19.0
2024 03 20    13 12 24.9 -25 41 22   0.01367 1.0075   148.5    31.0    18.3
2024 03 21    13 33 52.9 -14 20 44   0.01017 1.0052   153.2    26.5    17.6
...
2024 03 27    21 54 11.4 +64 53 18   0.01966 0.9905    67.8   111.1    22.0
...
2024 04 04    23 23 35.7 +56 29 51   0.05329 0.9696    53.8   123.6    25.0
...
2024 04 19    23 50 28.9 +51 15 58   0.1181  0.9274    46.7   128.0    27.0
M. P. C. Staff               (C) Copyright 2024 MPC           M.P.E.C. 2024-F48
    
    
More information about the Iaude
mailing list